GW2156 Weather Reports


time (UTC)temp
C
wind
direction
speed
KPH
gust
KPH
rain 1hr
cm
rain 24hr
cm
rain mn
cm
humidity
%
barometer
mb
20260506031122 8 315 6.4 9.7 0.00 0.00 0.00 100 1015.4
20260506030121 8 314 4.8 8.0 0.00 0.00 0.00 100 1015.5
20260506025122 8 297 4.8 6.4 0.00 0.00 0.00 100 1015.5
20260506024121 8 311 6.4 8.0 0.00 0.00 0.00 100 1015.6
20260506023121 8 309 4.8 8.0 0.00 0.00 0.00 100 1015.5
20260506022141 8 318 4.8 8.0 0.00 0.00 0.00 100 1015.6
20260506021126 8 319 4.8 6.4 0.00 0.00 0.00 100 1015.5
20260506020125 8 341 6.4 9.7 0.00 0.00 0.00 100 1015.6
20260506015145 8 353 4.8 6.4 0.00 0.00 0.00 100 1015.6
20260506014125 8 1 6.4 9.7 0.00 0.00 0.00 100 1015.7
20260506013126 8 349 4.8 8.0 0.00 0.00 0.00 100 1015.8
20260506012125 8 323 6.4 8.0 0.00 0.00 0.00 100 1015.9
20260506011125 8 344 6.4 9.7 0.00 0.00 0.00 100 1015.9
20260506010126 8 343 6.4 9.7 0.00 0.00 0.00 100 1015.9
20260506005125 8 1 3.2 4.8 0.00 0.00 0.00 100 1015.8
20260506004125 8 355 4.8 8.0 0.00 0.00 0.00 100 1015.8
20260506003125 8 336 6.4 9.7 0.00 0.00 0.00 100 1015.9
20260506002124 9 297 4.8 6.4 0.00 0.00 0.00 100 1015.9
20260506001125 9 309 3.2 4.8 0.00 0.00 0.00 100 1015.9
20260506000125 9 324 6.4 8.0 0.00 0.00 0.00 100 1015.9
20260505235125 9 324 6.4 8.0 0.00 0.00 0.00 100 1015.9
20260505234125 9 313 6.4 9.7 0.00 0.00 0.00 100 1016.0
20260505233124 9 310 8.0 9.7 0.00 0.00 0.00 100 1015.9
20260505232125 9 315 6.4 8.0 0.00 0.00 0.00 100 1015.9
20260505231124 9 312 8.0 9.7 0.00 0.00 0.00 100 1016.1
20260505230205 9 311 8.0 9.7 0.00 0.00 0.00 100 1016.2
20260505225124 10 313 8.0 9.7 0.00 0.00 0.00 100 1016.3
20260505224144 10 304 6.4 9.7 0.00 0.00 0.00 98 1016.3
20260505223124 10 311 6.4 9.7 0.00 0.00 0.00 97 1016.3
20260505222124 10 313 6.4 9.7 0.00 0.00 0.00 96 1016.4
20260505221144 10 312 8.0 8.0 0.00 0.00 0.00 95 1016.4
20260505220124 10 312 6.4 8.0 0.00 0.00 0.00 93 1016.4
20260505215124 10 334 6.4 8.0 0.00 0.00 0.00 94 1016.4
20260505214124 10 354 6.4 8.0 0.00 0.00 0.00 93 1016.4
20260505213124 10 2 4.8 6.4 0.00 0.00 0.00 92 1016.5
20260505212124 10 354 4.8 6.4 0.00 0.00 0.00 92 1016.4
20260505211124 10 5 4.8 6.4 0.00 0.00 0.00 91 1016.5
20260505210124 10 4 4.8 4.8 0.00 0.00 0.00 91 1016.5
20260505205124 10 353 4.8 6.4 0.00 0.00 0.00 90 1016.5
20260505204124 10 354 4.8 6.4 0.00 0.00 0.00 89 1016.5
20260505203124 10 0 4.8 4.8 0.00 0.00 0.00 90 1016.6
20260505202224 10 9 3.2 4.8 0.00 0.00 0.00 91 1016.5
20260505201124 10 27 3.2 6.4 0.00 0.00 0.00 91 1016.5
20260505200123 10 37 4.8 6.4 0.00 0.00 0.00 91 1016.4
20260505195123 10 35 4.8 6.4 0.00 0.00 0.00 91 1016.4
20260505194123 10 18 3.2 4.8 0.00 0.00 0.00 92 1016.4
20260505193124 10 37 4.8 6.4 0.00 0.00 0.00 92 1016.3
20260505192123 10 59 4.8 8.0 0.00 0.00 0.00 91 1016.2
20260505191123 10 35 4.8 8.0 0.00 0.00 0.00 92 1016.2
20260505190123 10 67 8.0 11.3 0.00 0.00 0.00 92 1016.2
20260505185123 10 69 6.4 9.7 0.00 0.00 0.00 93 1016.2
20260505184123 10 67 6.4 11.3 0.00 0.00 0.00 94 1016.2
20260505183123 10 65 8.0 11.3 0.00 0.00 0.00 95 1016.2
20260505182123 10 82 8.0 12.9 0.00 0.00 0.00 97 1016.2
20260505181143 10 80 9.7 16.1 0.00 0.00 0.00 96 1016.1
20260505180123 10 77 8.0 14.5 0.00 0.00 0.00 95 1016.1
20260505175143 10 74 11.3 16.1 0.00 0.00 0.00 95 1016.2
20260505174123 10 73 12.9 17.7 0.00 0.00 0.00 94 1016.2
20260505173123 10 81 12.9 19.3 0.00 0.00 0.00 93 1016.2
20260505172123 11 82 14.5 24.1 0.00 0.00 0.00 92 1016.3
20260505171143 10 74 16.1 22.5 0.00 0.00 0.00 91 1016.3
20260505170123 11 76 14.5 20.9 0.00 0.00 0.00 93 1016.3
20260505165123 11 71 14.5 19.3 0.00 0.00 0.00 93 1016.4
20260505164122 11 66 16.1 20.9 0.00 0.00 0.00 93 1016.4
20260505163142 11 74 14.5 20.9 0.00 0.00 0.00 93 1016.3
20260505162122 10 71 16.1 20.9 0.00 0.00 0.00 93 1016.4
20260505161144 11 70 11.3 16.1 0.00 0.00 0.00 94 1016.4
20260505160123 11 72 12.9 19.3 0.00 0.00 0.00 94 1016.4
20260505153122 11 71 14.5 19.3 0.00 0.00 0.00 90 1016.3
20260505152123 11 75 14.5 19.3 0.00 0.00 0.00 88 1016.3
20260505151122 11 80 16.1 22.5 0.00 0.00 0.00 89 1016.2
20260505150202 11 94 12.9 20.9 0.00 0.00 0.00 87 1016.3
20260505140122 12 91 8.0 14.5 0.00 0.00 0.00 83 1016.3
20260505130202 12 89 8.0 14.5 0.00 0.00 0.00 81 1016.4
20260505124121 11 89 11.3 16.1 0.00 0.00 0.00 83 1016.3
20260505123122 11 90 11.3 19.3 0.00 0.00 0.00 82 1016.3
20260505122121 12 87 12.9 22.5 0.00 0.00 0.00 80 1016.3
20260505121122 12 94 11.3 20.9 0.00 0.00 0.00 78 1016.4
20260505120142 12 77 12.9 19.3 0.00 0.00 0.00 74 1016.4
20260505115121 13 64 11.3 16.1 0.00 0.00 0.00 65 1016.4
20260505114121 12 33 11.3 17.7 0.00 0.00 0.00 62 1016.3
20260505113121 12 6 9.7 14.5 0.00 0.00 0.00 63 1016.5
20260505112121 12 15 12.9 20.9 0.00 0.00 0.00 67 1016.5
20260505111125 12 351 14.5 17.7 0.00 0.00 0.00 66 1016.5
20260505110125 12 345 11.3 16.1 0.00 0.00 0.00 67 1016.6
20260505102126 12 34 9.7 16.1 0.00 0.00 0.00 65 1016.7
20260505101125 12 359 11.3 16.1 0.00 0.00 0.00 67 1016.7
20260505100125 12 22 14.5 20.9 0.00 0.00 0.00 66 1016.7
20260505095145 11 17 14.5 22.5 0.00 0.00 0.00 67 1016.8
20260505094145 11 14 14.5 22.5 0.00 0.00 0.00 69 1016.8
20260505093125 11 2 16.1 20.9 0.00 0.00 0.00 70 1016.8
20260505092125 11 6 16.1 20.9 0.00 0.00 0.00 69 1016.8
20260505091125 11 9 19.3 24.1 0.00 0.00 0.00 64 1016.7
20260505090124 11 359 17.7 22.5 0.00 0.00 0.00 69 1016.6
20260505085125 11 350 12.9 19.3 0.00 0.00 0.00 72 1016.7
20260505084125 11 2 14.5 22.5 0.00 0.00 0.00 69 1016.7
20260505083124 11 2 14.5 20.9 0.00 0.00 0.00 71 1016.8
20260505082124 11 1 16.1 20.9 0.00 0.00 0.00 71 1016.8
20260505081305 11 346 16.1 24.1 0.00 0.00 0.00 70 1016.8
20260505080124 11 350 14.5 19.3 0.00 0.00 0.00 66 1016.8
20260505075124 11 359 16.1 20.9 0.00 0.00 0.00 67 1016.7
20260505074144 10 347 14.5 17.7 0.00 0.00 0.00 76 1016.7
20260505073124 11 335 16.1 20.9 0.00 0.00 0.00 76 1016.7
20260505072125 11 351 14.5 22.5 0.00 0.00 0.00 74 1016.7
20260505071124 11 355 16.1 25.7 0.00 0.00 0.00 68 1016.7
20260505070125 11 1 11.3 16.1 0.00 0.00 0.00 74 1016.7
20260505065124 11 356 16.1 20.9 0.00 0.00 0.00 72 1016.8
20260505064144 10 346 11.3 17.7 0.00 0.00 0.00 86 1016.8
20260505063125 9 342 14.5 19.3 0.00 0.00 0.00 95 1016.8
20260505062124 8 344 12.9 17.7 0.00 0.00 0.00 99 1016.9
20260505061125 8 338 12.9 17.7 0.00 0.00 0.00 100 1016.8
20260505060124 8 340 12.9 17.7 0.00 0.00 0.00 100 1016.9
20260505055124 8 324 12.9 17.7 0.00 0.00 0.00 100 1016.9
20260505054144 8 301 12.9 16.1 0.00 0.00 0.00 100 1016.8
20260505053124 8 299 11.3 17.7 0.00 0.00 0.00 100 1016.8
20260505052124 8 307 9.7 12.9 0.00 0.00 0.00 100 1016.8
20260505051124 8 300 11.3 16.1 0.00 0.00 0.00 100 1016.7
20260505050144 8 329 12.9 16.1 0.00 0.00 0.00 100 1016.7
20260505041130 8 302 12.9 20.9 0.00 0.00 0.00 100 1016.6
20260505040110 8 310 9.7 11.3 0.00 0.00 0.00 100 1016.6
20260505035110 8 298 12.9 19.3 0.00 0.00 0.00 100 1016.6
20260505034110 8 306 11.3 14.5 0.00 0.00 0.00 100 1016.7
20260505033130 8 296 12.9 22.5 0.00 0.00 0.00 100 1016.7